SL-12 R/B(2), 20502

Orbit data source: Space-Track

SL-12 R/B(2), 20502 is space debris in GEO originally from a launch on Thu, 15 Feb 1990 UTC launched from the Tyuratam Missile And Space Complex (TTMTR). Debris objects in space refer to the collection of defunct objects orbiting the Earth. Examples of debris include non-operational satellites, rocket bodies, and fragments generated from explosions, collisions, or faulty payload assembly.

Loading next visibility...
Identifier
20502, 1990-016D
Orbit
GEO
Country
Flag of CISCIS
Related business
Manufacturer
NPO Energiya
Mission
Spacecraft
Bus & Motor
BLOK DM, Unknown motor
Mass
2,440 kg wet, 2,440 kg dry
Launch date (UTC)
1990-02-15 (36 years ago)
Launch vehicle
Unknown
Launch site
Tyuratam Missile And Space Complex (TTMTR)
Object type
Payload
Rocket body
Debris
Shape & HBR
Cyl, 3.1 m
Radar Cross Section
23.597 m², Large (>1 m²)

Expand to show TLE details & history
Last TLE update: 16 hours ago

TLE from 16 hours ago
0 SL-12 R/B(2)
1 20502U 90016D   26095.09125222 -.00000290  00000-0  00000-0 0  9992
2 20502  12.5379 335.6996 0040362 244.8925 305.8340  1.00023774132034
Epoch: 2026-04-05T02:11Z
TLE epoch observation values (Epoch: 2026-04-05T02:11:24.191Z)
Latitude
-2.24872°
Longitude
-60.42242°
Altitude
35,755.809 km
Speed
3.079 km/s
True Right ascension
11h 03m 19s
True Declination
-2° 14' 47"
Sunlit
Object was in daylight at epoch
Visualization orbit readout
Latitude
Unknown
Longitude
Unknown
Altitude
Unknown
Speed
Unknown
Apparent Right ascension
Unknown
Apparent Declination
Unknown
Sunlit
N/A
Visualization observer readout
Local Sidereal Time
00:27:01
Azimuth
Unknown
Elevation
Unknown
Doppler factor
Unknown
Orbital elements
Apogee altitude
36,027.731 km
Perigee altitude
35,686.79 km
Semi-major axis
42,235.397 km
Eccentricity
0.00404
Inclination
12.5379°
RAAN
335.6996°
Arg. of periapsis
244.8925°
True anomaly
305.45792°
Mean anomaly
305.834°
Eccentric anomaly
305.64607°
Mean motion
0.25005 °/min
Orbital period
1,439.71 mins
BSTAR
0
Loading maneuver chart data...
Computing Atmospheric mass density...
Loading historical data...
Loading historical data...
Loading historical data...
Loading historical data...
Loading historical data...
Loading historical data...
Loading historical data...

Documentation

Showing up to 5 results
|